Torna al catalogo

COSMOS 2277

GLONASS

AttivoNavigazioneMEO
NORAD 23044·PAYLOAD·🇷🇺 Russia

Lanciato Apr 11, 1994 da Baikonur Cosmodrome

Loading…

Prossimi Passaggi (prossime 24 ore)

TLE

AggiornatoSource: Space-Track

Epoca: Sep 13, 2026, 09:42 UTC

1 23044U 94021B   26256.40426505 -.00000031  00000-0  00000-0 0  9991
2 23044  63.9199 297.5141 0059410 209.6493 218.5550  2.13104691252296

Traccia COSMOS 2277 in tempo reale con AllMySat

Download on the App Store